Hourly Weather Abovyan

Today, 14 August, Friday

Time Temperature Precipitation Wind Pressure Humidity
00:00 +21°C° 0 mm 3 mps 670 mmHg 66%
01:00 +21°C° 0 mm 2 mps 670 mmHg 67%
02:00 +20°C° 0 mm 2 mps 669 mmHg 68%
03:00 +20°C° 0 mm 2 mps 669 mmHg 69%
04:00 +20°C° 0 mm 2 mps 669 mmHg 69%
05:00 +20°C° 0 mm 2 mps 670 mmHg 69%
06:00 +20°C° 0 mm 2 mps 670 mmHg 69%
07:00 +21°C° 0.1 mm 2 mps 670 mmHg 64%
08:00 +24°C° 0.1 mm 2 mps 669 mmHg 58%
09:00 +25°C° 0.1 mm 1 mps 669 mmHg 53%
10:00 +27°C° 0.2 mm 1 mps 669 mmHg 50%
11:00 +28°C° 0.2 mm 1 mps 669 mmHg 47%
12:00 +29°C° 0.2 mm 1 mps 669 mmHg 44%
13:00 +29°C° 0.8 mm 2 mps 669 mmHg 44%
14:00 +29°C° 0.8 mm 3 mps 668 mmHg 44%
15:00 +30°C° 0.8 mm 3 mps 668 mmHg 43%
16:00 +29°C° 0.5 mm 4 mps 668 mmHg 46%
17:00 +28°C° 0.5 mm 4 mps 668 mmHg 49%
18:00 +27°C° 0.5 mm 5 mps 668 mmHg 52%
19:00 +25°C° 0.7 mm 4 mps 668 mmHg 58%
20:00 +22°C° 0.7 mm 4 mps 668 mmHg 63%
21:00 +21°C° 0.7 mm 3 mps 668 mmHg 69%
22:00 +20°C° 0.1 mm 3 mps 668 mmHg 68%
23:00 +20°C° 0.1 mm 2 mps 668 mmHg 68%

Tomorrow, 15 August, Saturday

Time Temperature Precipitation Wind Pressure Humidity
00:00 +20°C° 0.1 mm 2 mps 669 mmHg 68%
01:00 +19°C° 0 mm 2 mps 668 mmHg 68%
02:00 +19°C° 0 mm 2 mps 668 mmHg 69%
03:00 +19°C° 0 mm 2 mps 668 mmHg 69%
04:00 +19°C° 0 mm 2 mps 668 mmHg 70%
05:00 +19°C° 0 mm 2 mps 668 mmHg 70%
06:00 +19°C° 0 mm 2 mps 668 mmHg 71%
07:00 +20°C° 0 mm 2 mps 669 mmHg 65%
08:00 +23°C° 0 mm 2 mps 669 mmHg 60%
09:00 +25°C° 0 mm 1 mps 669 mmHg 54%
10:00 +26°C° 0.1 mm 1 mps 669 mmHg 52%
11:00 +27°C° 0.1 mm 1 mps 669 mmHg 49%
12:00 +28°C° 0.1 mm 1 mps 669 mmHg 46%
13:00 +28°C° 0.1 mm 2 mps 669 mmHg 44%
14:00 +29°C° 0.1 mm 2 mps 669 mmHg 43%
15:00 +29°C° 0.1 mm 3 mps 669 mmHg 41%
16:00 +28°C° 0 mm 4 mps 669 mmHg 44%
17:00 +27°C° 0 mm 5 mps 669 mmHg 46%
18:00 +27°C° 0 mm 5 mps 669 mmHg 48%
19:00 +25°C° 0 mm 5 mps 669 mmHg 51%
20:00 +23°C° 0 mm 4 mps 669 mmHg 54%
21:00 +21°C° 0 mm 4 mps 669 mmHg 57%
22:00 +21°C° 0 mm 3 mps 670 mmHg 55%
23:00 +21°C° 0 mm 3 mps 670 mmHg 54%

Day after tomorrow, 16 August, Sunday

Time Temperature Precipitation Wind Pressure Humidity
00:00 +21°C° 0 mm 2 mps 670 mmHg 53%
01:00 +20°C° 0 mm 2 mps 670 mmHg 55%
02:00 +19°C° 0 mm 2 mps 669 mmHg 56%
03:00 +19°C° 0 mm 2 mps 669 mmHg 58%
04:00 +18°C° 0 mm 2 mps 669 mmHg 60%
05:00 +18°C° 0 mm 2 mps 669 mmHg 61%
06:00 +18°C° 0 mm 2 mps 669 mmHg 63%
07:00 +20°C° 0 mm 2 mps 669 mmHg 58%
08:00 +23°C° 0 mm 2 mps 670 mmHg 53%
09:00 +24°C° 0 mm 2 mps 670 mmHg 49%
10:00 +26°C° 0 mm 2 mps 670 mmHg 47%
11:00 +27°C° 0 mm 2 mps 670 mmHg 45%
12:00 +28°C° 0 mm 2 mps 670 mmHg 43%
13:00 +29°C° 0 mm 2 mps 670 mmHg 42%
14:00 +29°C° 0 mm 3 mps 669 mmHg 40%
15:00 +30°C° 0 mm 3 mps 669 mmHg 39%
16:00 +29°C° 0.1 mm 3 mps 669 mmHg 43%
17:00 +28°C° 0.1 mm 4 mps 669 mmHg 47%
18:00 +27°C° 0.1 mm 4 mps 668 mmHg 51%
19:00 +25°C° 0.6 mm 4 mps 669 mmHg 56%
20:00 +23°C° 0.6 mm 4 mps 669 mmHg 61%
21:00 +21°C° 0.6 mm 4 mps 669 mmHg 65%
22:00 +20°C° 1.1 mm 3 mps 669 mmHg 70%
23:00 +20°C° 1.1 mm 2 mps 668 mmHg 75%

17 August, Monday

Time Temperature Precipitation Wind Pressure Humidity
00:00 +20°C° 1.1 mm 1 mps 668 mmHg 80%
01:00 +20°C° 0.6 mm 1 mps 668 mmHg 80%
02:00 +20°C° 0.6 mm 1 mps 668 mmHg 81%
03:00 +19°C° 0.6 mm 1 mps 669 mmHg 81%
04:00 +20°C° 0.2 mm 1 mps 669 mmHg 80%
05:00 +20°C° 0.2 mm 1 mps 669 mmHg 79%
06:00 +20°C° 0.2 mm 1 mps 669 mmHg 77%
07:00 +21°C° 0.1 mm 1 mps 669 mmHg 72%
08:00 +22°C° 0.1 mm 1 mps 670 mmHg 66%
09:00 +24°C° 0.1 mm 1 mps 670 mmHg 60%
10:00 +25°C° 0 mm 1 mps 670 mmHg 57%
11:00 +26°C° 0 mm 1 mps 670 mmHg 54%
12:00 +27°C° 0 mm 1 mps 671 mmHg 51%
13:00 +27°C° 0 mm 2 mps 671 mmHg 49%
14:00 +28°C° 0 mm 2 mps 671 mmHg 48%
15:00 +29°C° 0 mm 3 mps 671 mmHg 46%
16:00 +28°C° 0.1 mm 3 mps 670 mmHg 49%
17:00 +27°C° 0.1 mm 4 mps 670 mmHg 51%
18:00 +26°C° 0.1 mm 5 mps 670 mmHg 54%
19:00 +25°C° 0.1 mm 4 mps 670 mmHg 57%
20:00 +22°C° 0.1 mm 4 mps 671 mmHg 61%
21:00 +21°C° 0.1 mm 3 mps 671 mmHg 64%
22:00 +20°C° 0.1 mm 3 mps 671 mmHg 66%
23:00 +20°C° 0.1 mm 3 mps 671 mmHg 68%

18 August, Tuesday

Time Temperature Precipitation Wind Pressure Humidity
00:00 +19°C° 0.1 mm 2 mps 670 mmHg 69%
01:00 +19°C° 0.1 mm 2 mps 670 mmHg 70%
02:00 +18°C° 0.1 mm 2 mps 670 mmHg 71%
03:00 +18°C° 0.1 mm 2 mps 670 mmHg 72%
04:00 +19°C° 0 mm 1 mps 670 mmHg 72%
05:00 +19°C° 0 mm 1 mps 670 mmHg 72%
06:00 +19°C° 0 mm 1 mps 670 mmHg 73%
07:00 +21°C° 0 mm 1 mps 670 mmHg 67%
08:00 +22°C° 0 mm 1 mps 670 mmHg 61%
09:00 +24°C° 0 mm 1 mps 670 mmHg 56%
10:00 +25°C° 0 mm 2 mps 670 mmHg 53%
11:00 +26°C° 0 mm 2 mps 670 mmHg 50%
12:00 +27°C° 0 mm 2 mps 670 mmHg 47%
13:00 +28°C° 0 mm 2 mps 669 mmHg 45%
14:00 +29°C° 0 mm 2 mps 669 mmHg 44%
15:00 +30°C° 0 mm 2 mps 669 mmHg 42%
16:00 +29°C° 0.1 mm 2 mps 669 mmHg 45%
17:00 +28°C° 0.1 mm 3 mps 668 mmHg 48%
18:00 +27°C° 0.1 mm 3 mps 668 mmHg 52%
19:00 +25°C° 0 mm 3 mps 668 mmHg 55%
20:00 +24°C° 0 mm 3 mps 668 mmHg 58%
21:00 +21°C° 0 mm 3 mps 669 mmHg 62%
22:00 +21°C° 0.1 mm 3 mps 668 mmHg 63%
23:00 +20°C° 0.1 mm 3 mps 668 mmHg 65%

19 August, Wednesday

Time Temperature Precipitation Wind Pressure Humidity
00:00 +20°C° 0.1 mm 2 mps 668 mmHg 67%
01:00 +19°C° 0.1 mm 2 mps 668 mmHg 68%
02:00 +19°C° 0.1 mm 2 mps 668 mmHg 70%
03:00 +18°C° 0.1 mm 2 mps 668 mmHg 71%
04:00 +18°C° 0.2 mm 2 mps 668 mmHg 72%
05:00 +18°C° 0.2 mm 2 mps 668 mmHg 72%
06:00 +19°C° 0.2 mm 1 mps 668 mmHg 73%
07:00 +21°C° 0 mm 1 mps 668 mmHg 66%
08:00 +23°C° 0 mm 1 mps 668 mmHg 60%
09:00 +25°C° 0 mm 1 mps 669 mmHg 53%
10:00 +26°C° 0.1 mm 1 mps 668 mmHg 50%
11:00 +28°C° 0.1 mm 1 mps 668 mmHg 46%
12:00 +29°C° 0.1 mm 1 mps 668 mmHg 42%
13:00 +30°C° 0.2 mm 1 mps 668 mmHg 41%
14:00 +30°C° 0.2 mm 2 mps 668 mmHg 39%
15:00 +31°C° 0.2 mm 2 mps 668 mmHg 38%
16:00 +30°C° 0.1 mm 3 mps 668 mmHg 41%
17:00 +29°C° 0.1 mm 3 mps 668 mmHg 44%
18:00 +28°C° 0.1 mm 3 mps 668 mmHg 48%
19:00 +26°C° 0.1 mm 3 mps 668 mmHg 51%
20:00 +25°C° 0.1 mm 3 mps 668 mmHg 55%
21:00 +22°C° 0.1 mm 3 mps 668 mmHg 59%
22:00 +22°C° 0 mm 3 mps 668 mmHg 60%
23:00 +21°C° 0 mm 2 mps 668 mmHg 62%
Show more